Location: Erdweis
(48.5167°N, 15.3500°E)
Time: 16:10:22
(UTC+00:00)

COSMO-SKYMED 1 - Pass Details

Date: 18 September 2020
Orbit: 621 x 623 km, 97.9° (Epoch: 29 October)

Event Time Altitude Azimuth Distance (km) Brightness Sun altitude
Rises 17:30:19 0° 10° (N) 2,918 6.0 -5.1°
Reaches altitude 10° 17:32:32 10° 7° (N) 2,006 5.2 -5.5°
Maximum altitude 17:36:50 62° 288° (WNW) 703 3.2 -6.2°
Drops below altitude 10° 17:41:06 10° 207° (SSW) 1,989 5.4 -6.9°
Sets 17:43:18 0° 204° (SSW) 2,890 6.2 -7.3°
